Flag for Germany Weather past 2 weeks in Herrenberg, Baden-Württemberg, Germany

Now
63 °F

Drizzle. Broken clouds.


Feels Like: 63 °F
Forecast: 60 / 70 °F
Wind: 1 mph from North

Location: Stuttgart-Echterdingen

Current Time: Jul 29, 2014 at 11:37:46 AM

Latest Report: Jul 29, 2014 at 10:50 AM


Visibility: 4 mi

Pressure: 29.83 "Hg

Humidity: 94%

Dew point: 61 °F

Location of HerrenbergLocation

Historic Weather in Herrenberg — Graph

°F

Herrenberg temperature yesterday

Maximum temperature yesterday: 81 °F (at 4:20 PM)
Minimum temperature yesterday: 59 °F (at 5:50 AM)
Average temperature yesterday: 70 °F

Past Weeks' High & Low Weather Summary

 TemperatureHumidityPressure
High91 °F (Jul 19, 3:50 PM)100% (Jul 20, 11:50 PM)30.21 "Hg (Jul 20, 11:50 PM)
Low57 °F (Jul 16, 2:50 AM)22% (Jul 18, 2:50 PM)29.77 "Hg (Jul 28, 6:20 PM)
Average70 °F69%30.00 "Hg
* Reported Jul 14 10:20 AM — Jul 29 10:20 AM, Herrenberg, Weather by CustomWeather, © 2014

Note: Actual official high and low records may vary slightly from our data, if they occured in-between our weather recording intervals... More about our weather records

Advertising

Herrenberg weather history for previous 24 hours

 ConditionsComfort  
Time TempWeatherWind HumidityBarometerVisibility
10:20 AM
Jul 29
63 °FLight rain. Broken clouds.1 mph94%29.83 "Hg4 mi
9:50 AM63 °FBroken clouds.2 mph94%29.83 "Hg4 mi
9:20 AM63 °FFog.2 mph94%29.83 "Hg3 mi
8:50 AM63 °FDrizzle. Fog.3 mph94%29.83 "Hg2 mi
8:20 AM61 °FDrizzle. Fog.3 mph100%29.83 "Hg2 mi
7:50 AM61 °FDrizzle. Fog.2 mph94%29.80 "Hg2 mi
7:20 AM61 °FBroken clouds.1 mph94%29.80 "HgN/A
6:50 AM61 °FPartly cloudy.2 mph100%29.80 "HgN/A
6:20 AM61 °FLight rain. Partly cloudy.2 mph94%29.80 "HgN/A
5:50 AM61 °FPartly cloudy.1 mph94%29.80 "HgN/A
5:20 AM61 °FLight rain. Passing clouds.1 mph94%29.83 "HgN/A
4:50 AM61 °FLight rain. Passing clouds.1 mph94%29.83 "HgN/A
4:20 AM61 °FPassing clouds.2 mph94%29.83 "HgN/A
3:50 AM61 °FPassing clouds.3 mph94%29.83 "HgN/A
3:20 AM61 °FPassing clouds.No wind94%29.83 "HgN/A
2:50 AM61 °FLight rain. Passing clouds.2 mph94%29.83 "Hg6 mi
2:20 AM61 °FRain. Partly cloudy.7 mph100%29.83 "Hg5 mi
1:50 AM61 °FHeavy rain. Partly cloudy.2 mph94%29.83 "Hg4 mi
1:20 AM61 °FHeavy rain. Partly cloudy.5 mph94%29.86 "Hg4 mi
12:50 AM61 °FHeavy rain. Partly cloudy.3 mph94%29.86 "Hg5 mi
12:20 AM61 °FRain. Partly cloudy.3 mph94%29.83 "HgN/A
11:50 PM
Jul 28
63 °FRain. Partly cloudy.2 mph88%29.83 "HgN/A
10:50 PM63 °FLight rain. Partly cloudy.9 mph88%29.86 "HgN/A
10:20 PM63 °FLight rain. Partly cloudy.12 mph94%29.86 "HgN/A
9:50 PM63 °FThundershowers. Broken clouds.18 mph94%29.86 "Hg4 mi
9:20 PM64 °FThunderstorms. Partly sunny.6 mph88%29.86 "Hg5 mi
8:50 PM68 °FStrong thunderstorms. Broken clouds.2 mph88%29.83 "Hg2 mi
8:20 PM72 °FThunderstorms. Broken clouds.12 mph73%29.80 "HgN/A
7:50 PM73 °FThundershowers. Broken clouds.13 mph69%29.80 "HgN/A
7:20 PM75 °FThundershowers. Broken clouds.12 mph65%29.77 "HgN/A
6:50 PM75 °FBroken clouds.12 mph61%29.80 "HgN/A
6:20 PM79 °FScattered clouds.8 mph54%29.77 "HgN/A
5:50 PM79 °FSunny.7 mph54%29.80 "Hg10 mi
5:20 PM81 °FScattered clouds.7 mph51%29.80 "HgN/A
4:50 PM81 °FScattered clouds.5 mph45%29.80 "HgN/A
4:20 PM81 °FScattered clouds.8 mph51%29.83 "HgN/A
3:50 PM79 °FScattered clouds.7 mph54%29.83 "HgN/A
3:20 PM79 °FScattered clouds.5 mph51%29.83 "HgN/A
2:50 PM79 °FScattered clouds.7 mph54%29.86 "HgN/A
2:20 PM79 °FScattered clouds.6 mph54%29.86 "HgN/A
1:50 PM79 °FPassing clouds.5 mph61%29.86 "HgN/A
1:20 PM79 °FPassing clouds.3 mph54%29.89 "HgN/A
12:50 PM79 °FScattered clouds.2 mph58%29.89 "HgN/A
12:20 PM77 °FScattered clouds.2 mph65%29.89 "HgN/A
11:50 AM75 °FScattered clouds.5 mph61%29.89 "HgN/A
11:20 AM73 °FPartly sunny.5 mph65%29.92 "HgN/A
Weather by CustomWeather, © 2014

See weather overviewHow to use our weather pages